Hourly Weather Otnozhenskiy

Today, 30 July, Friday

Time Temperature Precipitation Wind Pressure Humidity
00:00 +26°C° 0 mm 2 mps 751 mmHg 39%
01:00 +26°C° 0 mm 2 mps 751 mmHg 41%
02:00 +25°C° 0 mm 2 mps 751 mmHg 43%
03:00 +25°C° 0 mm 2 mps 751 mmHg 45%
04:00 +25°C° 0 mm 2 mps 751 mmHg 46%
05:00 +25°C° 0 mm 2 mps 751 mmHg 47%
06:00 +25°C° 0 mm 2 mps 751 mmHg 48%
07:00 +27°C° 0 mm 3 mps 751 mmHg 43%
08:00 +29°C° 0 mm 3 mps 751 mmHg 38%
09:00 +32°C° 0 mm 4 mps 751 mmHg 33%
10:00 +33°C° 0 mm 4 mps 751 mmHg 31%
11:00 +35°C° 0 mm 5 mps 751 mmHg 28%
12:00 +36°C° 0 mm 5 mps 751 mmHg 26%
13:00 +36°C° 0 mm 5 mps 751 mmHg 25%
14:00 +36°C° 0 mm 5 mps 750 mmHg 24%
15:00 +37°C° 0 mm 5 mps 750 mmHg 24%
16:00 +36°C° 0 mm 4 mps 750 mmHg 25%
17:00 +36°C° 0 mm 4 mps 750 mmHg 26%
18:00 +36°C° 0 mm 4 mps 749 mmHg 27%
19:00 +34°C° 0 mm 3 mps 749 mmHg 32%
20:00 +31°C° 0 mm 2 mps 750 mmHg 36%
21:00 +29°C° 0 mm 2 mps 750 mmHg 40%
22:00 +28°C° 0 mm 2 mps 750 mmHg 41%
23:00 +27°C° 0 mm 2 mps 750 mmHg 42%

Tomorrow, 31 July, Saturday

Time Temperature Precipitation Wind Pressure Humidity
00:00 +27°C° 0 mm 2 mps 750 mmHg 42%
01:00 +26°C° 0 mm 1 mps 750 mmHg 41%
02:00 +26°C° 0 mm 1 mps 750 mmHg 40%
03:00 +25°C° 0 mm 1 mps 750 mmHg 39%
04:00 +25°C° 0 mm 1 mps 750 mmHg 39%
05:00 +25°C° 0 mm 2 mps 750 mmHg 38%
06:00 +25°C° 0 mm 2 mps 750 mmHg 38%
07:00 +27°C° 0 mm 2 mps 750 mmHg 34%
08:00 +30°C° 0 mm 2 mps 750 mmHg 30%
09:00 +32°C° 0 mm 2 mps 750 mmHg 26%
10:00 +34°C° 0 mm 2 mps 750 mmHg 24%
11:00 +36°C° 0 mm 2 mps 750 mmHg 21%
12:00 +37°C° 0 mm 3 mps 750 mmHg 19%
13:00 +37°C° 0 mm 2 mps 750 mmHg 19%
14:00 +38°C° 0 mm 2 mps 750 mmHg 18%
15:00 +38°C° 0 mm 2 mps 750 mmHg 18%
16:00 +38°C° 0 mm 2 mps 750 mmHg 18%
17:00 +37°C° 0 mm 2 mps 750 mmHg 19%
18:00 +37°C° 0 mm 2 mps 750 mmHg 19%
19:00 +34°C° 0 mm 1 mps 750 mmHg 22%
20:00 +32°C° 0 mm 1 mps 750 mmHg 24%
21:00 +30°C° 0 mm 1 mps 750 mmHg 27%
22:00 +29°C° 0 mm 1 mps 751 mmHg 30%
23:00 +28°C° 0 mm 2 mps 751 mmHg 32%

Day after tomorrow, 1 August, Sunday

Time Temperature Precipitation Wind Pressure Humidity
00:00 +27°C° 0 mm 2 mps 751 mmHg 35%
01:00 +27°C° 0 mm 2 mps 751 mmHg 35%
02:00 +26°C° 0 mm 2 mps 751 mmHg 35%
03:00 +26°C° 0 mm 2 mps 751 mmHg 35%
04:00 +26°C° 0 mm 2 mps 751 mmHg 35%
05:00 +26°C° 0 mm 2 mps 751 mmHg 35%
06:00 +26°C° 0 mm 2 mps 752 mmHg 35%
07:00 +28°C° 0 mm 2 mps 752 mmHg 31%
08:00 +31°C° 0 mm 2 mps 752 mmHg 27%
09:00 +35°C° 0 mm 2 mps 752 mmHg 22%
10:00 +36°C° 0 mm 3 mps 752 mmHg 20%
11:00 +37°C° 0 mm 3 mps 752 mmHg 18%
12:00 +39°C° 0 mm 3 mps 752 mmHg 16%
13:00 +39°C° 0 mm 3 mps 751 mmHg 15%
14:00 +39°C° 0 mm 2 mps 751 mmHg 15%
15:00 +40°C° 0 mm 2 mps 751 mmHg 14%
16:00 +39°C° 0 mm 2 mps 751 mmHg 15%
17:00 +39°C° 0 mm 2 mps 751 mmHg 15%
18:00 +39°C° 0 mm 2 mps 751 mmHg 16%
19:00 +36°C° 0 mm 2 mps 751 mmHg 18%
20:00 +34°C° 0 mm 2 mps 751 mmHg 20%
21:00 +31°C° 0 mm 2 mps 751 mmHg 21%
22:00 +30°C° 0 mm 2 mps 751 mmHg 23%
23:00 +29°C° 0 mm 2 mps 751 mmHg 24%

2 August, Monday

Time Temperature Precipitation Wind Pressure Humidity
00:00 +29°C° 0 mm 2 mps 751 mmHg 25%
01:00 +28°C° 0 mm 2 mps 751 mmHg 26%
02:00 +28°C° 0 mm 1 mps 751 mmHg 28%
03:00 +28°C° 0 mm 1 mps 751 mmHg 29%
04:00 +28°C° 0 mm 1 mps 751 mmHg 31%
05:00 +28°C° 0 mm 1 mps 751 mmHg 34%
06:00 +28°C° 0 mm 1 mps 751 mmHg 36%
07:00 +30°C° 0 mm 1 mps 751 mmHg 33%
08:00 +34°C° 0 mm 2 mps 751 mmHg 30%
09:00 +36°C° 0 mm 2 mps 751 mmHg 26%
10:00 +37°C° 0 mm 3 mps 751 mmHg 24%
11:00 +39°C° 0 mm 3 mps 751 mmHg 21%
12:00 +40°C° 0 mm 3 mps 751 mmHg 19%
13:00 +40°C° 0 mm 3 mps 750 mmHg 18%
14:00 +42°C° 0 mm 3 mps 750 mmHg 16%
15:00 +42°C° 0 mm 3 mps 750 mmHg 15%
16:00 +42°C° 0 mm 3 mps 750 mmHg 16%
17:00 +40°C° 0 mm 3 mps 749 mmHg 17%
18:00 +39°C° 0 mm 3 mps 749 mmHg 17%
19:00 +37°C° 0 mm 2 mps 749 mmHg 20%
20:00 +35°C° 0 mm 2 mps 749 mmHg 22%
21:00 +32°C° 0 mm 2 mps 749 mmHg 25%
22:00 +31°C° 0 mm 2 mps 749 mmHg 25%
23:00 +30°C° 0 mm 2 mps 749 mmHg 26%

3 August, Tuesday

Time Temperature Precipitation Wind Pressure Humidity
00:00 +30°C° 0 mm 2 mps 749 mmHg 26%
01:00 +29°C° 0 mm 2 mps 749 mmHg 27%
02:00 +28°C° 0 mm 2 mps 749 mmHg 28%
03:00 +28°C° 0 mm 2 mps 749 mmHg 29%
04:00 +28°C° 0 mm 2 mps 749 mmHg 31%
05:00 +28°C° 0 mm 2 mps 750 mmHg 33%
06:00 +28°C° 0 mm 2 mps 750 mmHg 36%
07:00 +30°C° 0 mm 2 mps 750 mmHg 32%
08:00 +32°C° 0 mm 2 mps 750 mmHg 29%
09:00 +35°C° 0 mm 2 mps 750 mmHg 25%
10:00 +37°C° 0 mm 2 mps 750 mmHg 23%
11:00 +38°C° 0 mm 3 mps 749 mmHg 21%
12:00 +40°C° 0 mm 3 mps 749 mmHg 20%
13:00 +40°C° 0 mm 3 mps 749 mmHg 20%
14:00 +41°C° 0 mm 4 mps 749 mmHg 20%
15:00 +41°C° 0 mm 5 mps 749 mmHg 21%
16:00 +40°C° 0 mm 5 mps 749 mmHg 24%
17:00 +39°C° 0 mm 5 mps 749 mmHg 27%
18:00 +37°C° 0 mm 5 mps 749 mmHg 30%
19:00 +35°C° 0 mm 4 mps 749 mmHg 34%
20:00 +33°C° 0 mm 4 mps 750 mmHg 39%
21:00 +30°C° 0 mm 3 mps 750 mmHg 43%
22:00 +29°C° 0 mm 4 mps 750 mmHg 48%
23:00 +28°C° 0 mm 4 mps 751 mmHg 52%

4 August, Wednesday

Time Temperature Precipitation Wind Pressure Humidity
00:00 +27°C° 0 mm 4 mps 751 mmHg 57%
01:00 +26°C° 0.1 mm 4 mps 751 mmHg 62%
02:00 +25°C° 0.1 mm 4 mps 751 mmHg 68%
03:00 +23°C° 0.1 mm 4 mps 752 mmHg 74%
04:00 +23°C° 0 mm 4 mps 752 mmHg 74%
05:00 +24°C° 0 mm 3 mps 752 mmHg 74%
06:00 +24°C° 0 mm 3 mps 752 mmHg 74%
07:00 +26°C° 0 mm 3 mps 752 mmHg 66%
08:00 +28°C° 0 mm 3 mps 753 mmHg 58%
09:00 +30°C° 0 mm 3 mps 753 mmHg 51%
10:00 +31°C° 0 mm 3 mps 753 mmHg 46%
11:00 +33°C° 0 mm 4 mps 753 mmHg 41%
12:00 +34°C° 0 mm 4 mps 753 mmHg 37%
13:00 +34°C° 0 mm 3 mps 753 mmHg 34%
14:00 +34°C° 0 mm 3 mps 753 mmHg 32%
15:00 +34°C° 0 mm 3 mps 753 mmHg 30%
16:00 +34°C° 0 mm 3 mps 752 mmHg 29%
17:00 +34°C° 0 mm 3 mps 752 mmHg 28%
18:00 +34°C° 0 mm 2 mps 752 mmHg 28%
19:00 +32°C° 0 mm 2 mps 752 mmHg 30%
20:00 +30°C° 0 mm 3 mps 753 mmHg 33%
21:00 +28°C° 0 mm 3 mps 753 mmHg 35%
22:00 +28°C° 0 mm 3 mps 753 mmHg 37%
23:00 +27°C° 0 mm 3 mps 753 mmHg 38%
Show more